Location: Adavinekkalam
(16.6301°N, 80.7229°E)
Time: 08:11:13
(UTC+00:00)

Daily predictions for brighter satellites

Satellite Brightness Start Highest point End
(mag) Time Altitude Azimuth Time Altitude Azimuth Time Altitude Azimuth
Cosmos 1452 Rocket 3.7 13:14:01 10° S 13:19:02 51° ESE 13:24:05 10° NNE
Cosmos 407 Rocket 3.9 13:16:53 10° NNW 13:21:58 68° WSW 13:27:05 10° S
COBE Rocket 4.0 13:17:37 10° N 13:22:38 88° W 13:27:31 10° SSW
Delta 202 4.0 13:19:20 10° W 13:24:39 52° SSW 13:29:54 10° ESE
Cosmos 1461 4.0 13:23:16 10° SSE 13:25:43 17° ESE 13:28:12 10° ENE
CZ-3 Stage 3 2.9 13:11:19 10° WSW 13:26:13 87° NNW 13:30:28 10° ENE
Okean 1 Rocket 3.9 13:22:47 10° SSE 13:26:34 30° E 13:30:23 10° NNE
Cosmos 1975 Rocket 2.9 13:22:33 10° N 13:26:49 76° E 13:31:04 10° S
IRS-P3 4.2 13:22:16 10° SSE 13:27:35 86° WSW 13:32:52 10° NNW
ARIANE 6 FM1 Upper Stage 2.7 13:26:19 10° NNW 13:30:16 80° WSW 13:34:17 10° SSE
Cosmos 2251 Rocket 3.7 13:26:55 10° N 13:32:09 57° ENE 13:37:21 10° SSE
Meteor 2-1 Rocket 4.3 13:31:44 10° S 13:37:20 57° E 13:42:50 10° NNE
Cosmos 2173 Rocket 4.3 13:34:25 10° SSE 13:40:09 44° E 13:45:56 10° NNE
H-10 deb 3.7 13:32:21 10° W 13:41:43 30° SSW 13:44:36 12° SE
Cosmos 1862 3.5 13:39:34 10° NNW 13:43:03 60° W 13:46:32 10° S
SPOT 5 4.2 13:42:57 13° ESE 13:44:47 17° ENE 13:47:30 10° NE
SJ-6B 3.3 13:43:02 12° SE 13:45:48 31° ENE 13:48:54 10° NNE
Cosmos 2082 Rocket 2.1 13:42:03 10° S 13:47:43 72° ESE 13:53:24 10° NNE
YAOGAN 3 4.4 13:44:51 10° SSE 13:49:01 67° ENE 13:53:10 10° N
SAR-Lupe-1 4.0 13:52:56 10° S 13:56:28 83° WSW 14:00:00 10° NNW
PSLV R/B 3.4 13:58:44 10° SSE 14:02:52 88° W 14:07:00 10° NNW
Cosmos 332 Rocket 3.7 14:00:22 10° N 14:05:03 65° ENE 14:08:26 19° SSE
Helios 1A Rocket 3.7 14:04:21 10° NE 14:05:58 22° ENE 14:05:58 22° ENE
ASTEX 1 3.7 14:07:21 21° SE 14:10:22 45° E 14:15:03 10° N
ATLAS 3B R/B 3.7 14:04:24 10° N 14:10:48 31° ENE 14:13:45 23° E
Cosmos 1697 Rocket 2.9 14:09:29 10° N 14:14:54 50° ENE 14:17:27 29° SE
Meteor 1-27 4.2 14:12:06 10° S 14:17:44 65° E 14:23:17 10° NNE
Cosmos 1459 Rocket 4.0 14:12:21 10° S 14:18:38 82° W 14:24:50 10° N
Delta 2 Rocket 4.4 14:13:21 10° WNW 14:19:38 62° NNE 14:23:53 26° E
Sich 1 Rocket 4.3 14:16:41 10° SSW 14:20:55 53° W 14:25:10 10° N
BREEZE-M DEB (TANK) 2.2 14:18:19 10° NW 14:21:08 80° WSW 14:21:08 80° WSW
ERS-1 Rocket 4.3 14:24:44 22° ENE 14:24:44 22° ENE 14:28:05 10° NNE
Cosmos 1375 Rocket 4.4 14:17:59 10° SSW 14:24:19 76° ESE 14:30:47 10° NNE
Cosmos 1802 Rocket 3.9 14:21:18 10° S 14:27:32 84° E 14:33:42 10° N
SWIFT 2.5 14:25:57 10° WNW 14:28:53 38° N 14:29:03 37° N
GPS 2-15 Rocket1 3.1 14:24:58 10° WSW 14:29:43 62° SSE 14:30:38 51° ESE
COSMOS 2406 3.1 14:25:15 10° S 14:30:58 78° ESE 14:36:42 10° NNE
ATLAS 2A CENTAUR R/B 4.3 14:25:42 10° SW 14:31:39 59° SE 14:46:16 10° ENE
GPS 2-12 Rocket1 4.3 14:29:06 10° WSW 14:32:40 25° SSW 14:33:02 25° SSW
Delta 198 4.2 14:27:13 10° WSW 14:33:30 69° SSE 14:35:42 39° E
CSL-04 Rocket 3.6 14:32:04 37° SE 14:34:13 67° ENE 14:39:39 10° N
Resurs 01 Rocket 4.0 14:31:27 10° SSW 14:34:44 21° W 14:38:01 10° NW
Cosmos 1782 2.5 14:38:11 72° NNW 14:38:11 72° NNW 14:41:23 10° N
Cosmos 1536 Rocket 4.0 14:35:12 10° NNW 14:39:31 61° W 14:41:33 30° SSW
Cosmos 1992 Rocket 4.2 14:36:20 10° SSW 14:41:30 71° WNW 14:46:41 10° N
SL-4 R/B 2.1 14:40:02 10° NNW 14:43:23 63° N 14:43:23 63° N
Cosmos 1980 Rocket 2.9 14:41:02 10° N 14:45:51 36° ENE 14:45:51 36° ENE
Terra 3.1 14:49:55 27° NE 14:49:55 27° NE 14:52:36 10° N
Cosmos 2228 2.9 14:48:38 77° NW 14:48:38 77° NW 14:52:30 10° N
CZ-4B R/B 4.3 14:51:39 54° N 14:51:39 54° N 14:54:48 10° N
Cosmos 1455 Rocket 4.2 14:46:43 10° SSW 14:50:51 41° W 14:55:01 10° NNW
CZ-4 R/B 2.5 14:52:59 31° N 14:52:59 31° N 14:55:00 10° N
SEDSat Delta rocket 4.0 14:45:10 10° WSW 14:51:39 76° NNW 14:55:19 28° NE
Cosmos 2233 Rocket 3.8 14:48:48 33° S 14:51:49 81° E 14:57:59 10° N
CZ-4B DEB 4.2 14:55:43 62° ENE 14:55:43 62° ENE 15:01:06 10° N
Cosmos 968 Rocket 3.8 14:50:40 10° NNW 14:55:48 61° WSW 14:57:08 45° SSW
CZ-4B R/B 3.9 14:59:47 40° NE 14:59:47 40° NE 15:04:08 10° N
SL-08 R/B 3.3 14:55:41 10° N 15:00:07 76° NNW 15:00:07 76° NNW
Milstar 3 3.6 14:58:42 10° NW 15:05:08 46° NNE 15:08:08 34° ENE
USA 215 3.1 15:07:42 67° E 15:08:28 74° NE 15:14:58 10° NNW
Longmarch 3A Rocket 4.1 15:03:51 10° WNW 15:09:30 21° NNW 15:10:37 19° N
ARIANE 5 R/B 4.2 14:47:57 10° W 15:15:56 41° SSW 15:16:34 40° S
Cosmos 1741 Rocket 4.5 15:15:00 10° NNW 15:19:34 58° WNW 15:19:34 58° WNW
Aureole 3 Rocket 4.3 15:19:55 57° SSW 15:21:23 77° W 15:29:44 10° N
Feng Yun 1-1 Rocket 4.5 15:22:28 63° NW 15:22:28 63° NW 15:27:08 10° NNW
ATLAS CENTAUR Rocket 3.1 15:26:46 10° WNW 15:29:01 37° W 15:29:01 37° W
ATLAS 3B R/B 4.0 15:55:00 10° NW 16:01:01 33° WSW 16:01:01 33° WSW
Atlas Centaur 2 4.4 20:33:35 26° N 20:33:35 26° N 20:39:07 10° NE
CZ-2D R/B 4.4 20:47:44 10° NNE 20:49:36 21° NE 20:49:36 21° NE
ATLAS 2AS CENTAUR R/B 4.2 21:14:39 10° N 21:20:37 32° ENE 21:26:38 10° ESE
ADEOS II 3.4 21:29:02 10° NNE 21:31:56 35° N 21:31:56 35° N
Centaur D AC-25 4.0 21:46:53 26° ESE 21:46:53 26° ESE 21:48:43 10° E
Resurs 1-4 Rocket 4.0 21:44:14 10° N 21:46:01 20° NNW 21:46:01 20° NNW
Cosmos 2344 4.4 21:57:30 36° WNW 21:57:44 36° WNW 22:04:37 10° N
SEDSat Delta rocket 3.8 21:58:53 56° N 21:59:20 58° NNE 22:04:04 10° ESE
Cosmos 2154 Rocket 3.8 21:55:56 10° N 22:02:06 77° W 22:02:30 73° SW
Cosmos 2074 Rocket 4.0 21:56:54 10° NNW 22:02:32 61° WNW 22:02:32 61° WNW
USA 267 4.2 21:58:47 10° ENE 22:04:50 40° SE 22:07:45 26° S
OAO 3 Rocket 3.9 22:07:47 43° SE 22:07:47 43° SE 22:12:04 10° ENE
Cosmos 1943 Rocket 2.8 22:06:45 35° SSE 22:08:48 51° ESE 22:14:15 10° NNE
Cosmos 1241 Rocket 4.3 22:09:25 66° SW 22:10:14 76° WNW 22:16:24 10° NNE
Cosmos 2184 Rocket 4.0 22:04:24 10° NNW 22:10:05 55° W 22:10:05 55° W
USA 281 3.1 22:07:19 10° SSE 22:13:53 87° ENE 22:20:28 10° NNW
Spot 2 4.3 22:13:36 57° SSE 22:14:38 90° NNE 22:19:34 10° NNW
ARIANE 5 R/B 3.9 22:17:40 11° SE 22:17:40 11° SE 22:17:47 10° SE
Cosmos 1603 3.7 22:10:10 10° NNW 22:15:54 81° ENE 22:21:35 10° SSE
H-2A R/B 3.7 22:15:21 10° NNW 22:17:57 20° NW 22:17:57 20° NW
Atlas Centaur 2 4.3 22:16:10 10° NW 22:22:54 33° NNE 22:30:07 10° ENE
GPS 2-17 Rocket1 2.9 22:23:15 76° WNW 22:23:38 88° NNE 22:28:14 10° ESE
CZ-2D R/B 4.3 22:30:02 10° NW 22:30:51 12° NW 22:30:51 12° NW
H-2A R/B 1.8 22:29:39 10° N 22:33:39 70° WNW 22:34:05 63° WSW
Cosmos 1610 Rocket 4.5 22:28:21 10° NNW 22:34:27 59° W 22:38:58 19° SSW
Cosmos 1900 4.3 22:31:09 10° NNW 22:35:53 55° WSW 22:40:40 10° S
Cosmos 1400 Rocket 2.9 22:34:03 10° NNW 22:37:12 50° WNW 22:37:12 50° WNW
Cosmos 2181 Rocket 3.9 22:32:30 13° S 22:37:57 85° E 22:44:04 10° N
GOES 2 Rocket 3.7 22:36:03 36° W 22:38:18 64° NNW 22:43:05 10° ENE
CZ-3 R/B 3.4 22:04:19 10° WNW 22:38:48 76° SSW 22:47:19 10° SE
Meteor 2-13 Rocket 4.4 22:37:13 28° SSW 22:40:28 61° W 22:46:32 10° N
Cosmos 2278 Rocket 2.2 22:38:44 23° SSW 22:42:21 86° ESE 22:48:01 10° NNE
Cosmos 1680 Rocket 4.1 22:43:14 34° W 22:44:03 36° WNW 22:48:48 10° N
Cosmos 962 Rocket 4.4 22:42:01 10° N 22:48:16 77° W 22:54:35 10° S
SL-24 R/B 4.3 22:46:55 10° N 22:50:52 48° WNW 22:52:43 30° SW
Meteosat 1 Rocket2 3.6 22:43:50 10° WNW 22:51:06 88° SSW 22:55:52 10° ESE
SL-16 R/B 2.8 22:45:49 10° SSE 22:52:02 72° ENE 22:58:15 10° N
OAO 3 Copernicus 4.2 22:49:48 32° SW 22:52:07 81° SE 22:57:06 10° ENE
USA 238 DEB 3.4 22:48:14 17° SSW 22:52:47 76° ESE 22:58:50 10° NNE
USA 238 3.4 22:48:22 17° SSW 22:52:59 75° ESE 22:59:02 10° NNE
SL-24 DEB 4.0 22:48:56 10° S 22:53:27 78° W 22:57:56 10° N
Meteor 2-5 Rocket 3.7 22:50:54 18° SSW 22:55:01 61° W 23:00:27 10° N
ARGOS 4.3 22:54:35 10° NNW 22:58:39 23° WNW 22:59:52 21° W
Cosmos 1703 Rocket 3.5 22:54:26 10° S 22:58:43 81° E 23:03:01 10° N
Meteor 2-15 4.4 22:54:57 10° N 23:01:03 89° W 23:07:09 10° S
Cosmos 1867 4.1 22:56:32 10° NW 23:01:26 35° WSW 23:06:18 10° S
USA 59 Rocket 0.7 22:56:09 10° SSW 23:01:54 61° ESE 23:05:59 10° NE
Cosmos 1939 Rocket 2.6 23:05:16 10° N 23:09:02 85° WNW 23:12:50 10° SSW
CZ-2C R/B 2.6 23:05:36 10° N 23:09:53 43° WNW 23:13:34 14° SW
ATLAS 2AS CENTAUR R/B 3.4 23:05:28 10° NW 23:11:14 30° WSW 23:17:07 10° S
CZ-4C R/B 3.4 23:03:14 10° NNW 23:11:43 88° ENE 23:21:04 10° SSE
Meteor 1-24 Rocket 4.4 23:08:45 17° SW 23:12:00 32° W 23:16:51 10° NNW
Cosmos 2228 Rocket 4.2 23:10:26 20° WSW 23:12:07 25° W 23:15:46 10° NNW
deb Centaur AC-2 4.1 23:10:36 20° SW 23:13:36 75° SSE 23:18:28 10° ENE
Exosat Rocket 4.2 23:11:19 16° SW 23:15:03 35° WNW 23:19:36 10° N
Cosmos 1048 Rocket 4.2 23:14:10 11° SSW 23:18:48 48° WNW 23:23:42 10° N
NOSS 2-1 (C) 4.2 23:14:39 10° SSW 23:20:39 68° ESE 23:24:53 10° NNE
Meteor 2-15 Rocket 4.4 23:16:18 10° N 23:22:26 85° W 23:28:33 10° S
Cosmos 2341 Rocket 4.2 23:17:22 10° NNW 23:23:23 48° W 23:29:21 10° SSW
Cosmos 1869 4.5 23:25:09 10° NNE 23:28:22 39° E 23:31:34 10° SSE
SL-8 Rocket 4.4 23:23:54 10° NNW 23:29:33 39° W 23:35:12 10° SSW
Nadezhda 3 Rocket 4.0 23:26:06 10° SSW 23:32:11 60° W 23:38:14 10° N
Cosmos 2218 Rocket 4.3 23:27:45 10° NNW 23:33:47 46° W 23:39:49 10° SSW
Centaur AC-125 4.3 23:38:40 10° NW 23:40:02 13° N 23:41:12 10° NNE
SEDSat Delta rocket 4.1 23:40:40 10° W 23:44:53 28° SW 23:48:42 10° SSE
Cosmos 1833 Rocket 2.7 23:41:33 10° NNW 23:47:09 72° WSW 23:52:44 10° S
USA 267 4.1 23:41:47 10° NNE 23:47:35 35° NW 23:53:24 10° WSW
